L01 Visnjan Observatory, Tican. Observer K. Korlevic. 1.0-m f/2.9 reflector
+ CCD.
L04 ROASTERR-1 Observatory, Cluj-Napoca. Observer L. Hudin. 0.3-m f/5
reflector + CCD.
L47 Osservatorio Astronomico, Piobbico. Observers A. Teseo, A. Annamelia.
Measurer A. Teseo. 0.20-m f/6.3 Schmidt-Cassegrain + CCD.
M17 SN1572 Tycho Observatory, La Spezia. Observer L. Bertagna. 0.20-m f/4
reflector + CCD.
M22 ATLAS South Africa, Sutherland. Observers L. Denneau, R. Siverd, J.
Tonry, H. Weiland. Measurers L. Denneau, N. Erasmus, A. Fitzsimmons, A.
Lawrence, J. Robinson, R. Siverd, J. Tonry, H. Weiland. 0.5-m Reflector +
CCD.
M28 Lesedi Telescope-SAAO Observatory, Sutherland. Observers N. Erasmus, S.
Potter, C. van Gend, S. Chandra, H. Worters. Measurers T. Ngwane, N.
Erasmus. 1.0-m f/8 Reflector + CCD.
M32 Sunny Transcarpathian, Mukachevo. Observer O. Briukhovetskyi. 0.35-m
f/2.0 astrograf + CCD.
M44 Al-Khatim Observatory, Abu Dhabi. Observer M. Odeh. 0.36-m f/7.7 SC +
CMO.
M45 Starhopper Observatory, Sfantu Gheorghe. Observer F. Ursache. 0.41-m
f/7.5 reflector + CMO.
V06 Catalina Sky Survey-Kuiper. Observer J. B. Fazekas. Measurers E. J.
Christensen, D. Fay, J. B. Fazekas, D. C. Fuls, A. R. Gibbs, A. D. Grauer,
H. Groeller, J. K. Hogan, R. A. Kowalski, S. M. Larson, G. J. Leonard, D.
Rankin, R. L. Seaman, A. Serrano, F. C. Shelly, K. W. Wierzchos. 1.55-m
reflector + 1K CCD.
Y01 SONEAR 2 Observatory, Belo Horizonte. Observers C. Jacques, A. Caetano,
E. Pimentel. Measurer C. Jacques. 0.28-m f/2.2 astrograph + CMO.
Z80 Northolt Branch Observatory. Observer G. Wells. Measurers G. Wells, D.
Bamberger. 0.25-m f/8.0 Ritchey-Chretien + CCD.
Orbital elements:
2023 RF1 Earth MOID = 0.0019 AU
Epoch 2023 Sept. 13.0 TT = JDT 2460200.5 Veres
M 78.77360 (2000.0) P Q
n 0.93514052 Peri. 261.65217 -0.38263836 +0.92387250
a 1.0356622 Node 345.84467 -0.83618393 -0.34947338
e 0.2039136 Incl. 1.61473 -0.39291769 -0.15597423
P 1.05 H 25.75 G 0.15 U 5
Residuals in seconds of arc
230907 M22 0.6- 0.2- 230907 G34 0.1+ 0.1- 230907 G17 0.2- 0.3-
230907 M22 (3.7- 0.2-) 230907 G34 0.0 0.1- 230907 G17 0.1- 0.4-
230907 M22 0.5+ 0.3+ 230907 G34 0.3+ 0.0 230907 I93 0.1- 0.1-
230907 M22 0.5+ 0.0 230907 G02 0.5- 0.0 230907 595 0.2- 0.0
230907 M28 1.7- 0.6+ 230907 G02 0.1- 0.6- 230907 204 0.0 0.0
230907 M28 1.3- 0.7+ 230907 130 (1.5+ 0.1-) 230907 I93 0.4- 0.1-
230907 M28 1.2- 0.7+ 230907 130 0.1- 0.2- 230907 595 0.1+ 0.2-
230907 V06 0.4+ 0.1+ 230907 G02 0.4- 0.6- 230907 204 0.0 0.1+
230907 V06 0.1+ 0.2+ 230907 130 0.0 0.0 230907 204 0.1- 0.1+
230907 V06 0.1+ 0.2+ 230907 L47 0.6+ 0.7+ 230907 595 0.2+ 0.1+
230907 V06 0.2+ 0.2+ 230907 130 0.1+ 0.2- 230907 I93 0.2- 0.1-
230907 V06 0.1+ 0.2+ 230907 L47 0.3+ 0.8+ 230907 595 0.3+ 0.0
230907 V06 0.2+ 0.2+ 230907 L47 0.2+ 0.4+ 230908 K74 0.0 0.0
230907 V06 0.5+ 0.2+ 230907 C40 0.4- 0.0 230908 K74 0.0 0.0
230907 F51 0.1+ 0.0 230907 C40 0.1- 0.0 230908 K74 0.1+ 0.0
230907 M44 0.2- 0.6- 230907 033 0.1+ 0.0 230908 K74 0.2+ 0.0
230907 M44 0.2+ 0.0 230907 033 0.2- 0.0 230908 K74 0.0 0.2-
230907 M44 0.8- 0.3- 230907 033 0.1- 0.0 230908 M45 0.3- 0.1-
230907 M17 0.5+ 0.6- 230907 C40 0.1- 0.0 230908 M45 0.3- 0.2-
230907 M17 1.5+ 0.4- 230907 L01 0.3- 0.2+ 230908 M45 0.1- 0.1-
230907 M17 0.9+ 1.9- 230907 L01 0.6- 0.0 230908 C95 0.2+ 0.1-
230907 M32 0.1- 0.1- 230907 L01 0.5- 0.4+ 230908 C95 0.0 0.3-
230907 M32 0.1- 0.2- 230907 L04 0.3- 0.1- 230908 C95 0.2- 0.2-
230907 M32 0.1- 0.1- 230907 L01 0.5- 0.1+ 230908 C95 0.1- 0.1-
230907 246 0.2- 0.1- 230907 958 0.1+ 0.0 230908 Y01 0.2- 0.7-
230907 246 0.1- 0.1- 230907 L01 0.5- 0.2+ 230908 Y01 0.2- 0.2-
230907 246 0.2- 0.1+ 230907 Z80 0.6- 0.0 230908 Y01 0.5+ 0.5-
230907 246 0.2+ 0.1- 230907 L04 0.2+ 0.1- 230908 033 0.4+ 0.1-
230907 246 0.1- 0.0 230907 B72 0.3- 0.1+ 230908 033 0.2+ 0.1-
230907 246 0.0 0.2- 230907 B72 0.0 0.0 230908 033 0.4+ 0.2-
230907 M32 0.2+ 0.1- 230907 958 0.1- 0.0 230908 G40 0.0 0.1-
230907 C40 0.2- 0.1+ 230907 L04 0.4+ 0.0 230908 G40 0.0 0.1+
230907 M32 0.3+ 0.2- 230907 B72 0.3- 0.1- 230908 718 0.1- 0.3+
230907 C40 0.0 0.1+ 230907 G17 0.1+ 0.4+ 230908 718 0.3- 0.3+
230907 C40 0.0 0.1+ 230907 958 0.1- 0.0 230908 718 0.9+ 0.2-
230907 G34 0.1- 0.1- 230907 Z80 0.2- 0.0 230908 718 0.3+ 0.2-
Ephemeris:
2023 RF1 a,e,i = 1.04, 0.20, 2 q = 0.8245
Date TT R. A. (2000) Decl. Delta r Elong. Phase V
2023 08 09 10 26 46.1 +02 00 36 0.1059 0.9173 22.9 154.5 30.1
...
2023 08 24 10 11 17.7 +01 20 26 0.04462 0.9673 10.0 169.5
...
2023 09 01 09 07 14.4 +02 17 07 0.01541 0.9953 23.6 156.1 26.5
...
2023 09 07 01 10 06.1 +02 09 31 0.01020 1.0165 146.5 33.2 17.2
2023 09 08 00 30 41.4 +01 27 44 0.01331 1.0200 157.1 22.6 17.5
2023 09 09 00 06 35.0 +01 00 28 0.01667 1.0235 163.8 15.9 17.8
...
2023 09 15 23 15 35.6 -00 03 01 0.03841 1.0442 175.3 4.5 19.2
...
2023 09 23 22 59 55.7 -00 27 47 0.06938 1.0710 165.5 13.5 20.9
...
2023 10 08 22 56 42.3 -00 32 58 0.1337 1.1178 150.6 26.1 22.8
M. P. C. Staff (C) Copyright 2023 MPC M.P.E.C. 2023-R55
More information about the Iaude
mailing list